Hourly Weather Roundup
Issued by NWS Central Illinois

Home | Current Version | Previous Version | Text Only | Print | Product List | Glossary On
Versions: 1 2 3 4 5 6 7 8 9 10 11 12 13 14 15 16 17 18 19 20 21 22 23 24 25 26 27 28 29 30 31 32 33 34 35 36 37 38 39 40 41 42 43 44 45 46 47 48 49 50
000
NZUS43 KILX 012110
HWRILX

AREA WEATHER ROUNDUP
NATIONAL WEATHER SERVICE, LINCOLN IL
300 PM CST SUN MAR 01 2015


CITY           SKY/WX    TMP DP  RH WIND       PRES   REMARKS
BLOOMINGTON    MOSUNNY   27  21  77 NW7       30.33S WCI  20
CHAMPAIGN      CLOUDY    27  22  81 NW8       30.32S WCI  19
DECATUR        CLOUDY    28  23  81 NW7       30.34R HAZE    WCI  21
FLORA          RAIN      31  29  92 NW7       30.34F WCI  25
GALESBURG      PTSUNNY   25  18  75 W8        30.34S WCI  16
JACKSONVILLE   CLOUDY    30  22  71 W5        30.36F WCI  25
LACON          PTSUNNY   25  17  72 W9        30.33S WCI  15
LAWRENCEVILLE  CLOUDY    33  30  88 W9        30.34R FOG     WCI  25
LITCHFIELD     CLOUDY    28  22  80 N13       30.33F WCI  17
$$


CITY           SKY/WX    TMP DP  RH WIND       PRES   REMARKS
LINCOLN        MOSUNNY   30  22  72 W5        30.37R WCI  25
MACOMB         CLOUDY    25  20  80 N3        30.38S
MATTOON        CLOUDY    28  23  81 NW8       30.32R WCI  20
MT CARMEL AP   CLOUDY    34  32  93 NW7       30.34R FOG     WCI  28
OLNEY-NOBLE AP CLOUDY    32  30  93 W8        30.34R FOG     WCI  25
PARIS          CLOUDY    27  25  91 NW8       30.32S WCI  19
PEORIA         CLOUDY    28  18  66 W8        30.34S WCI  20
PONTIAC        PTSUNNY   25  19  78 W6        30.33S WCI  18
RANTOUL        CLOUDY    27  22  80 NW7       30.31S WCI  20
ROBINSON       CLOUDY    32  31  96 NW9       30.34R FOG     WCI  24
SPRINGFIELD    CLOUDY    29  21  72 N3        30.35F
TAYLORVILLE    CLOUDY    28  23  80 N8        30.35S WCI  20
$$

...REGIONAL REPORTS...


CITY           SKY/WX    TMP DP  RH WIND       PRES   REMARKS
CHICAGO O`HARE PTSUNNY   25  15  66 SW12      30.27F WCI  14
KANKAKEE       CLOUDY    25  19  80 W8        30.32F WCI  16
MOLINE         MOSUNNY   28  16  60 W9        30.32F WCI  19
MOUNT VERNON   CLOUDY    32  27  80 CALM      30.33F
PITTSFIELD     MOSUNNY   30  22  73 NW5       30.36S WCI  25
QUINCY         MOSUNNY   28  19  69 NW7       30.35F WCI  21
ROCKFORD       PTSUNNY   25  14  63 W7        30.29F WCI  17
$$


CITY           SKY/WX    TMP DP  RH WIND       PRES   REMARKS
BURLINGTON     CLOUDY    26  18  71 SW6       30.35S WCI  19
CEDAR RAPIDS   PTSUNNY   27  20  75 W16       30.31S WCI  15
DES MOINES     MOSUNNY   33  17  51 NW8       30.34S WCI  26
KIRKSVILLE     CLOUDY    29  19  66 W8        30.35F WCI  21
OTTUMWA        MOSUNNY   30  19  63 W8        30.34S WCI  22
ST LOUIS       CLOUDY    31  24  75 NW7       30.36R WCI  24
$$


CITY           SKY/WX    TMP DP  RH WIND       PRES   REMARKS
TERRE HAUTE    CLOUDY    30  26  85 N5        30.31S WCI  25
EVANSVILLE     CLOUDY    36  30  79 NW7       30.35R HAZE    WCI  30
INDIANAPOLIS   FLURRIES  30  25  81 NW5       30.27S WCI  25
LAFAYETTE      CLOUDY    26  21  81 NW8       30.31S WCI  18
MADISON        PTSUNNY   27  15  61 SW9G18    30.22F WCI  18
MILWAUKEE      MOSUNNY   27  13  55 SW14      30.23F WCI  16
$$




USA.gov is the U.S. government's official web portal to all federal, state and local government web resources and services.